Terminal Aerodrome Forecast
Issued by NWS

Home | Current Version | Previous Version | Text Only | Print | Product List | Glossary On
Versions: 1 2 3 4 5 6 7 8 9 10 11 12 13 14 15 16 17 18 19 20 21 22 23 24 25 26 27 28 29 30 31 32 33 34 35
000
FTUS45 KPIH 201800 AAA
TAFSUN
TAF AMD
KSUN 201800Z 2018/2118 VRB06KT 1SM -SN BKN010 OVC015
     FM201900 12008KT 6SM -SHRASN BR SCT010 BKN015 OVC020
     FM202100 15010KT P6SM -RA SCT015 BKN020 OVC030
     FM210200 VRB05KT 5SM -SHRASN BR SCT008 BKN013 OVC020
      TEMPO 2107/2111 2SM -SHSN BR BKN008 OVC013=

USA.gov is the U.S. government's official web portal to all federal, state and local government web resources and services.